sat.trackr.live / text

‹ back to catalog

GSAT-17

NORAD 42815 · 2017-040B

PAYLOAD ACTIVE UNKNOWN

§ Identity

Operator
Country
IND
Launch date
2017-06-28
Launch site
FRGUI
Launch vehicle
Mass (kg)
RCS (m²)

Purposes: comms, earth_obs

External: N2YO · Heavens-Above · Gunter

§ Orbital elements

Epoch: 2026-09-20T01:58:07.055040Z

Period
1,436.08 min
Inclination
0.0158°
Eccentricity
0.0004204
Mean motion
1.00272969 rev/d
Perigee alt
35,768.5 km
Apogee alt
35,804.0 km
Semi-major
42,164.4 km
B*
0.0000e+0
RAAN
118.0752°
Arg perigee
129.4887°
Mean anomaly
234.4579°
Rev number
3,374

§ Raw data

GSAT-171 42815U 17040B   26263.08202610 -.00000262  00000+0  00000+0 0  99992 42815   0.0158 118.0752 0004204 129.4887 234.4579  1.00272969 33746

JSON: /api/v1/satellites/42815 · /tle

For live sub-satellite position, see the globe view (requires WebGL).

§ Visibility from observer

Set your observer location to see the next 7 days of passes ≥ 10°. The values pass through the URL so the page stays shareable.

No JS? Fill the form by hand. The geolocation button needs JavaScript.